contact:dominique.lefevre@mio.osupytheas.fr, maurice.libes@osupytheas.fr, didier.mallarino@osupytheas.fr
Project:EMSO http://www.emso-fr.org/EMSO-France
Depth: 2436.0 m
Title:EMSO Ligure Ouest : Data MII capteur MICROCAT
DateTime_Computer,Latitude,Longitude,Temperature,Conductivity,Pressure,DateTime_Instrument
DateTime_Computer,Latitude,Longitude,degC,S m-1,dbar,DateTime_Instrument
2021-08-10T00:02:24Z,42.805,6.029,13.2988,4.60007,2470.483,2021-8-10T02:03:42Z
2021-08-10T00:05:27Z,42.805,6.029,13.2991,4.60004,2470.46,2021-8-10T02:06:46Z
2021-08-10T00:08:31Z,42.805,6.029,13.2991,4.60004,2470.483,2021-8-10T02:09:49Z
2021-08-10T00:11:34Z,42.805,6.029,13.2986,4.60004,2470.474,2021-8-10T02:12:52Z
2021-08-10T00:14:37Z,42.805,6.029,13.2988,4.60006,2470.474,2021-8-10T02:15:55Z
2021-08-10T00:17:40Z,42.805,6.029,13.2989,4.60004,2470.46,2021-8-10T02:18:58Z
2021-08-10T00:20:43Z,42.805,6.029,13.2992,4.60003,2470.46,2021-8-10T02:22:01Z
2021-08-10T00:23:46Z,42.805,6.029,13.2990,4.60006,2470.474,2021-8-10T02:25:04Z
2021-08-10T00:26:49Z,42.805,6.029,13.2989,4.60004,2470.474,2021-8-10T02:28:07Z
2021-08-10T00:29:52Z,42.805,6.029,13.2991,4.60005,2470.45,2021-8-10T02:31:10Z
2021-08-10T00:32:56Z,42.805,6.029,13.2989,4.60006,2470.46,2021-8-10T02:34:14Z
2021-08-10T00:35:59Z,42.805,6.029,13.2991,4.60008,2470.46,2021-8-10T02:37:17Z
2021-08-10T00:39:02Z,42.805,6.029,13.2988,4.60005,2470.46,2021-8-10T02:40:20Z
2021-08-10T00:42:05Z,42.805,6.029,13.2991,4.60002,2470.437,2021-8-10T02:43:23Z
2021-08-10T00:45:08Z,42.805,6.029,13.2988,4.60006,2470.45,2021-8-10T02:46:26Z
2021-08-10T00:48:11Z,42.805,6.029,13.2989,4.60008,2470.45,2021-8-10T02:49:29Z
2021-08-10T00:51:14Z,42.805,6.029,13.2992,4.60004,2470.437,2021-8-10T02:52:32Z
2021-08-10T00:54:17Z,42.805,6.029,13.2993,4.60004,2470.437,2021-8-10T02:55:35Z
2021-08-10T00:57:21Z,42.805,6.029,13.2988,4.60003,2470.413,2021-8-10T02:58:39Z
2021-08-10T01:00:24Z,42.805,6.029,13.2991,4.60003,2470.39,2021-8-10T03:01:42Z
2021-08-10T01:03:27Z,42.805,6.029,13.2988,4.60004,2470.45,2021-8-10T03:04:45Z
2021-08-10T01:06:30Z,42.805,6.029,13.2988,4.60002,2470.45,2021-8-10T03:07:48Z
2021-08-10T01:09:33Z,42.805,6.029,13.2988,4.60005,2470.437,2021-8-10T03:10:51Z
2021-08-10T01:12:36Z,42.805,6.029,13.2990,4.60005,2470.437,2021-8-10T03:13:54Z
2021-08-10T01:15:39Z,42.805,6.029,13.2988,4.60004,2470.437,2021-8-10T03:16:57Z
2021-08-10T01:18:42Z,42.805,6.029,13.2986,4.60005,2470.437,2021-8-10T03:20:00Z
2021-08-10T01:21:45Z,42.805,6.029,13.2990,4.60003,2470.427,2021-8-10T03:23:04Z
2021-08-10T01:24:49Z,42.805,6.029,13.2988,4.60005,2470.45,2021-8-10T03:26:07Z
2021-08-10T01:27:52Z,42.805,6.029,13.2987,4.60004,2470.437,2021-8-10T03:29:10Z
2021-08-10T01:30:55Z,42.805,6.029,13.2989,4.60003,2470.413,2021-8-10T03:32:13Z
2021-08-10T01:33:58Z,42.805,6.029,13.2991,4.60002,2470.404,2021-8-10T03:35:16Z
2021-08-10T01:37:01Z,42.805,6.029,13.2989,4.60007,2470.413,2021-8-10T03:38:19Z
2021-08-10T01:40:04Z,42.805,6.029,13.2990,4.60003,2470.427,2021-8-10T03:41:22Z
2021-08-10T01:43:07Z,42.805,6.029,13.2990,4.60003,2470.413,2021-8-10T03:44:25Z
2021-08-10T01:46:10Z,42.805,6.029,13.2993,4.60001,2470.437,2021-8-10T03:47:29Z
2021-08-10T01:49:14Z,42.805,6.029,13.2988,4.60001,2470.404,2021-8-10T03:50:32Z
2021-08-10T01:52:17Z,42.805,6.029,13.2990,4.60004,2470.427,2021-8-10T03:53:35Z
2021-08-10T01:55:20Z,42.805,6.029,13.2990,4.60002,2470.404,2021-8-10T03:56:38Z
2021-08-10T01:58:23Z,42.805,6.029,13.2991,4.60001,2470.427,2021-8-10T03:59:41Z
2021-08-10T02:01:26Z,42.805,6.029,13.2990,4.60003,2470.427,2021-8-10T04:02:44Z
2021-08-10T02:04:29Z,42.805,6.029,13.2988,4.60003,2470.39,2021-8-10T04:05:47Z
2021-08-10T02:07:32Z,42.805,6.029,13.2991,4.60003,2470.39,2021-8-10T04:08:50Z
2021-08-10T02:10:35Z,42.805,6.029,13.2992,4.60004,2470.404,2021-8-10T04:11:53Z
2021-08-10T02:13:39Z,42.805,6.029,13.2988,4.60002,2470.413,2021-8-10T04:14:57Z
2021-08-10T02:16:42Z,42.805,6.029,13.2993,4.60006,2470.427,2021-8-10T04:18:00Z
2021-08-10T02:19:45Z,42.805,6.029,13.2988,4.60002,2470.39,2021-8-10T04:21:03Z
2021-08-10T02:22:48Z,42.805,6.029,13.2990,4.60003,2470.427,2021-8-10T04:24:06Z
2021-08-10T02:25:51Z,42.805,6.029,13.2987,4.60003,2470.404,2021-8-10T04:27:09Z
2021-08-10T02:28:54Z,42.805,6.029,13.2991,4.60003,2470.404,2021-8-10T04:30:12Z
2021-08-10T02:31:57Z,42.805,6.029,13.2987,4.60004,2470.343,2021-8-10T04:33:15Z
2021-08-10T02:35:00Z,42.805,6.029,13.2988,4.60003,2470.38,2021-8-10T04:36:18Z
2021-08-10T02:38:04Z,42.805,6.029,13.2991,4.60002,2470.404,2021-8-10T04:39:22Z
2021-08-10T02:41:07Z,42.805,6.029,13.2991,4.60002,2470.39,2021-8-10T04:42:25Z
2021-08-10T02:44:10Z,42.805,6.029,13.2988,4.60002,2470.38,2021-8-10T04:45:28Z
2021-08-10T02:47:13Z,42.805,6.029,13.2990,4.60002,2470.413,2021-8-10T04:48:31Z
2021-08-10T02:50:16Z,42.805,6.029,13.2986,4.60002,2470.366,2021-8-10T04:51:34Z
2021-08-10T02:53:19Z,42.805,6.029,13.2990,4.60003,2470.39,2021-8-10T04:54:37Z
2021-08-10T02:56:22Z,42.805,6.029,13.2993,4.60003,2470.38,2021-8-10T04:57:40Z
2021-08-10T02:59:25Z,42.805,6.029,13.2986,4.60002,2470.38,2021-8-10T05:00:43Z
2021-08-10T03:02:29Z,42.805,6.029,13.2987,4.60002,2470.38,2021-8-10T05:03:47Z
2021-08-10T03:05:32Z,42.805,6.029,13.2991,4.60004,2470.38,2021-8-10T05:06:50Z
2021-08-10T03:08:35Z,42.805,6.029,13.2990,4.60003,2470.404,2021-8-10T05:09:53Z
2021-08-10T03:11:38Z,42.805,6.029,13.2988,4.60003,2470.343,2021-8-10T05:12:56Z
2021-08-10T03:14:41Z,42.805,6.029,13.2991,4.60004,2470.404,2021-8-10T05:15:59Z
2021-08-10T03:17:44Z,42.805,6.029,13.2989,4.60003,2470.32,2021-8-10T05:19:02Z
2021-08-10T03:20:47Z,42.805,6.029,13.2989,4.60003,2470.39,2021-8-10T05:22:05Z
2021-08-10T03:23:50Z,42.805,6.029,13.2991,4.60001,2470.366,2021-8-10T05:25:08Z
2021-08-10T03:26:54Z,42.805,6.029,13.2993,4.60001,2470.404,2021-8-10T05:28:12Z
2021-08-10T03:29:57Z,42.805,6.029,13.2988,4.60003,2470.366,2021-8-10T05:31:15Z
2021-08-10T03:33:00Z,42.805,6.029,13.2985,4.60001,2470.38,2021-8-10T05:34:18Z
2021-08-10T03:36:03Z,42.805,6.029,13.2991,4.60000,2470.38,2021-8-10T05:37:21Z
2021-08-10T03:39:06Z,42.805,6.029,13.2991,4.60001,2470.366,2021-8-10T05:40:24Z
2021-08-10T03:42:09Z,42.805,6.029,13.2994,4.59999,2470.366,2021-8-10T05:43:27Z
2021-08-10T03:45:12Z,42.805,6.029,13.2990,4.60001,2470.39,2021-8-10T05:46:30Z
2021-08-10T03:48:15Z,42.805,6.029,13.2990,4.60001,2470.427,2021-8-10T05:49:33Z
2021-08-10T03:51:19Z,42.805,6.029,13.2991,4.60002,2470.413,2021-8-10T05:52:37Z
2021-08-10T03:54:22Z,42.805,6.029,13.2990,4.60003,2470.366,2021-8-10T05:55:40Z
2021-08-10T03:57:25Z,42.805,6.029,13.2988,4.60001,2470.357,2021-8-10T05:58:43Z
2021-08-10T04:00:28Z,42.805,6.029,13.2991,4.60001,2470.404,2021-8-10T06:01:46Z
2021-08-10T04:03:31Z,42.805,6.029,13.2989,4.60001,2470.404,2021-8-10T06:04:49Z
2021-08-10T04:06:34Z,42.805,6.029,13.2991,4.60002,2470.366,2021-8-10T06:07:52Z
2021-08-10T04:09:37Z,42.805,6.029,13.2992,4.60001,2470.366,2021-8-10T06:10:55Z
2021-08-10T04:12:40Z,42.805,6.029,13.2990,4.60002,2470.353,2021-8-10T06:13:58Z
2021-08-10T04:15:44Z,42.805,6.029,13.2990,4.60005,2470.39,2021-8-10T06:17:02Z
2021-08-10T04:18:47Z,42.805,6.029,13.2990,4.60003,2470.366,2021-8-10T06:20:05Z
2021-08-10T04:21:50Z,42.805,6.029,13.2986,4.60003,2470.38,2021-8-10T06:23:08Z
2021-08-10T04:24:53Z,42.805,6.029,13.2990,4.60002,2470.404,2021-8-10T06:26:11Z
2021-08-10T04:27:56Z,42.805,6.029,13.2987,4.60001,2470.39,2021-8-10T06:29:14Z
2021-08-10T04:30:59Z,42.805,6.029,13.2990,4.60002,2470.427,2021-8-10T06:32:17Z
2021-08-10T04:34:02Z,42.805,6.029,13.2988,4.59999,2470.366,2021-8-10T06:35:20Z
2021-08-10T04:37:05Z,42.805,6.029,13.2991,4.60003,2470.404,2021-8-10T06:38:23Z
2021-08-10T04:40:09Z,42.805,6.029,13.2992,4.60003,2470.366,2021-8-10T06:41:27Z
2021-08-10T04:43:12Z,42.805,6.029,13.2987,4.60001,2470.39,2021-8-10T06:44:30Z
2021-08-10T04:46:15Z,42.805,6.029,13.2990,4.60004,2470.413,2021-8-10T06:47:33Z
2021-08-10T04:49:18Z,42.805,6.029,13.2990,4.60000,2470.39,2021-8-10T06:50:36Z
2021-08-10T04:52:21Z,42.805,6.029,13.2993,4.60002,2470.413,2021-8-10T06:53:39Z
2021-08-10T04:55:24Z,42.805,6.029,13.2990,4.60000,2470.404,2021-8-10T06:56:42Z
2021-08-10T04:58:27Z,42.805,6.029,13.2990,4.60002,2470.39,2021-8-10T06:59:45Z
2021-08-10T05:01:30Z,42.805,6.029,13.2991,4.60003,2470.404,2021-8-10T07:02:48Z
2021-08-10T05:04:33Z,42.805,6.029,13.2990,4.60000,2470.437,2021-8-10T07:05:52Z
2021-08-10T05:07:37Z,42.805,6.029,13.2989,4.60008,2470.413,2021-8-10T07:08:55Z
2021-08-10T05:10:40Z,42.805,6.029,13.2989,4.60001,2470.39,2021-8-10T07:11:58Z
2021-08-10T05:13:43Z,42.805,6.029,13.2990,4.60001,2470.413,2021-8-10T07:15:01Z
2021-08-10T05:16:46Z,42.805,6.029,13.2988,4.60006,2470.404,2021-8-10T07:18:04Z
2021-08-10T05:19:49Z,42.805,6.029,13.2989,4.60002,2470.413,2021-8-10T07:21:07Z
2021-08-10T05:22:52Z,42.805,6.029,13.2993,4.60002,2470.413,2021-8-10T07:24:10Z
2021-08-10T05:25:55Z,42.805,6.029,13.2983,4.60001,2470.413,2021-8-10T07:27:13Z
2021-08-10T05:28:58Z,42.805,6.029,13.2990,4.60005,2470.413,2021-8-10T07:30:16Z
2021-08-10T05:32:02Z,42.805,6.029,13.2990,4.60001,2470.427,2021-8-10T07:33:20Z
2021-08-10T05:35:05Z,42.805,6.029,13.2986,4.60003,2470.413,2021-8-10T07:36:23Z
2021-08-10T05:38:08Z,42.805,6.029,13.2990,4.60000,2470.437,2021-8-10T07:39:26Z
2021-08-10T05:41:11Z,42.805,6.029,13.2986,4.60002,2470.423,2021-8-10T07:42:29Z
2021-08-10T05:44:14Z,42.805,6.029,13.2990,4.60003,2470.437,2021-8-10T07:45:32Z
2021-08-10T05:47:17Z,42.805,6.029,13.2990,4.60002,2470.46,2021-8-10T07:48:35Z
2021-08-10T05:50:20Z,42.805,6.029,13.2989,4.60003,2470.46,2021-8-10T07:51:38Z
2021-08-10T05:53:23Z,42.805,6.029,13.2988,4.60000,2470.437,2021-8-10T07:54:41Z
2021-08-10T05:56:27Z,42.805,6.029,13.2990,4.60005,2470.437,2021-8-10T07:57:45Z
2021-08-10T05:59:30Z,42.805,6.029,13.2991,4.60004,2470.474,2021-8-10T08:00:48Z
2021-08-10T06:02:33Z,42.805,6.029,13.2990,4.60004,2470.46,2021-8-10T08:03:51Z
2021-08-10T06:05:36Z,42.805,6.029,13.2993,4.60002,2470.474,2021-8-10T08:06:54Z
2021-08-10T06:08:39Z,42.805,6.029,13.2990,4.60005,2470.46,2021-8-10T08:09:57Z
2021-08-10T06:11:42Z,42.805,6.029,13.2990,4.60002,2470.46,2021-8-10T08:13:00Z
2021-08-10T06:14:45Z,42.805,6.029,13.2990,4.60002,2470.437,2021-8-10T08:16:03Z
2021-08-10T06:17:48Z,42.805,6.029,13.2991,4.60004,2470.437,2021-8-10T08:19:06Z
2021-08-10T06:20:52Z,42.805,6.029,13.2990,4.60004,2470.45,2021-8-10T08:22:10Z
2021-08-10T06:23:55Z,42.805,6.029,13.2987,4.60003,2470.497,2021-8-10T08:25:13Z
2021-08-10T06:26:58Z,42.805,6.029,13.2986,4.60003,2470.483,2021-8-10T08:28:16Z
2021-08-10T06:30:01Z,42.805,6.029,13.2986,4.60003,2470.483,2021-8-10T08:31:19Z
2021-08-10T06:33:04Z,42.805,6.029,13.2989,4.60001,2470.474,2021-8-10T08:34:22Z
2021-08-10T06:36:07Z,42.805,6.029,13.2986,4.60001,2470.46,2021-8-10T08:37:25Z
2021-08-10T06:39:10Z,42.805,6.029,13.2990,4.60001,2470.474,2021-8-10T08:40:28Z
2021-08-10T06:42:13Z,42.805,6.029,13.2990,4.60001,2470.497,2021-8-10T08:43:31Z
2021-08-10T06:45:17Z,42.805,6.029,13.2987,4.60003,2470.507,2021-8-10T08:46:35Z
2021-08-10T06:48:20Z,42.805,6.029,13.2990,4.60001,2470.46,2021-8-10T08:49:38Z
2021-08-10T06:51:23Z,42.805,6.029,13.2986,4.60003,2470.507,2021-8-10T08:52:41Z
2021-08-10T06:54:26Z,42.805,6.029,13.2990,4.60003,2470.483,2021-8-10T08:55:44Z
2021-08-10T06:57:29Z,42.805,6.029,13.2989,4.60005,2470.497,2021-8-10T08:58:47Z
2021-08-10T07:00:32Z,42.805,6.029,13.2993,4.60003,2470.544,2021-8-10T09:01:50Z
2021-08-10T07:03:35Z,42.805,6.029,13.2992,4.60004,2470.46,2021-8-10T09:04:53Z
2021-08-10T07:06:38Z,42.805,6.029,13.2986,4.60003,2470.483,2021-8-10T09:07:56Z
2021-08-10T07:09:41Z,42.805,6.029,13.2986,4.60004,2470.507,2021-8-10T09:11:00Z
2021-08-10T07:12:45Z,42.805,6.029,13.2992,4.60003,2470.483,2021-8-10T09:14:03Z
2021-08-10T07:15:48Z,42.805,6.029,13.2990,4.60004,2470.553,2021-8-10T09:17:06Z
2021-08-10T07:18:51Z,42.805,6.029,13.2987,4.60004,2470.483,2021-8-10T09:20:09Z
2021-08-10T07:21:54Z,42.805,6.029,13.2992,4.60002,2470.52,2021-8-10T09:23:12Z
2021-08-10T07:24:57Z,42.805,6.029,13.2991,4.60004,2470.507,2021-8-10T09:26:15Z
2021-08-10T07:28:00Z,42.805,6.029,13.2984,4.60001,2470.483,2021-8-10T09:29:18Z
2021-08-10T07:31:03Z,42.805,6.029,13.2991,4.60006,2470.483,2021-8-10T09:32:21Z
2021-08-10T07:34:06Z,42.805,6.029,13.2991,4.60004,2470.52,2021-8-10T09:35:25Z
2021-08-10T07:37:10Z,42.805,6.029,13.2989,4.60002,2470.53,2021-8-10T09:38:28Z
2021-08-10T07:40:13Z,42.805,6.029,13.2989,4.60003,2470.507,2021-8-10T09:41:31Z
2021-08-10T07:43:16Z,42.805,6.029,13.2991,4.60001,2470.483,2021-8-10T09:44:34Z
2021-08-10T07:46:19Z,42.805,6.029,13.2993,4.60001,2470.53,2021-8-10T09:47:37Z
2021-08-10T07:49:22Z,42.805,6.029,13.2988,4.60001,2470.52,2021-8-10T09:50:40Z
2021-08-10T07:52:25Z,42.805,6.029,13.2987,4.60000,2470.483,2021-8-10T09:53:43Z
2021-08-10T07:55:28Z,42.805,6.029,13.2990,4.60003,2470.507,2021-8-10T09:56:46Z
2021-08-10T07:58:31Z,42.805,6.029,13.2987,4.60001,2470.474,2021-8-10T09:59:50Z
2021-08-10T08:01:35Z,42.805,6.029,13.2990,4.60001,2470.483,2021-8-10T10:02:53Z
2021-08-10T08:04:38Z,42.805,6.029,13.2990,4.60006,2470.497,2021-8-10T10:05:56Z
2021-08-10T08:07:41Z,42.805,6.029,13.2991,4.60000,2470.52,2021-8-10T10:08:59Z
2021-08-10T08:10:44Z,42.805,6.029,13.2993,4.60001,2470.52,2021-8-10T10:12:02Z
2021-08-10T08:13:47Z,42.805,6.029,13.2990,4.59999,2470.53,2021-8-10T10:15:05Z
2021-08-10T08:16:50Z,42.805,6.029,13.2990,4.60000,2470.483,2021-8-10T10:18:08Z
2021-08-10T08:19:53Z,42.805,6.029,13.2989,4.60001,2470.507,2021-8-10T10:21:11Z
2021-08-10T08:22:56Z,42.805,6.029,13.2990,4.60000,2470.483,2021-8-10T10:24:15Z
2021-08-10T08:26:00Z,42.805,6.029,13.2989,4.60002,2470.53,2021-8-10T10:27:18Z
2021-08-10T08:29:03Z,42.805,6.029,13.2991,4.60000,2470.553,2021-8-10T10:30:21Z
2021-08-10T08:32:06Z,42.805,6.029,13.2986,4.60000,2470.497,2021-8-10T10:33:24Z
2021-08-10T08:35:09Z,42.805,6.029,13.2990,4.60002,2470.507,2021-8-10T10:36:27Z
2021-08-10T08:38:12Z,42.805,6.029,13.2987,4.60003,2470.483,2021-8-10T10:39:30Z
2021-08-10T08:41:15Z,42.805,6.029,13.2992,4.60002,2470.483,2021-8-10T10:42:33Z
2021-08-10T08:44:18Z,42.805,6.029,13.2990,4.60002,2470.52,2021-8-10T10:45:36Z
2021-08-10T08:47:22Z,42.805,6.029,13.2986,4.60004,2470.47,2021-8-10T10:48:40Z
2021-08-10T08:50:25Z,42.805,6.029,13.2988,4.60001,2470.52,2021-8-10T10:51:43Z
2021-08-10T08:53:28Z,42.805,6.029,13.2990,4.60003,2470.52,2021-8-10T10:54:46Z
2021-08-10T08:56:31Z,42.805,6.029,13.2986,4.60002,2470.52,2021-8-10T10:57:49Z
2021-08-10T08:59:34Z,42.805,6.029,13.2991,4.60002,2470.497,2021-8-10T11:00:52Z
2021-08-10T09:02:37Z,42.805,6.029,13.2990,4.60001,2470.497,2021-8-10T11:03:55Z
2021-08-10T09:05:40Z,42.805,6.029,13.2990,4.59999,2470.46,2021-8-10T11:06:58Z
2021-08-10T09:08:43Z,42.805,6.029,13.2988,4.60001,2470.483,2021-8-10T11:10:02Z
2021-08-10T09:11:47Z,42.805,6.029,13.2989,4.60003,2470.483,2021-8-10T11:13:05Z
2021-08-10T09:14:50Z,42.805,6.029,13.2990,4.60001,2470.46,2021-8-10T11:16:08Z
2021-08-10T09:17:53Z,42.805,6.029,13.2986,4.59999,2470.474,2021-8-10T11:19:11Z
2021-08-10T09:20:56Z,42.805,6.029,13.2988,4.60002,2470.52,2021-8-10T11:22:14Z
2021-08-10T09:23:59Z,42.805,6.029,13.2990,4.60001,2470.483,2021-8-10T11:25:17Z
2021-08-10T09:27:02Z,42.805,6.029,13.2987,4.60002,2470.46,2021-8-10T11:28:20Z
2021-08-10T09:30:05Z,42.805,6.029,13.2991,4.60004,2470.46,2021-8-10T11:31:23Z
2021-08-10T09:33:08Z,42.805,6.029,13.2990,4.60001,2470.474,2021-8-10T11:34:27Z
2021-08-10T09:36:12Z,42.805,6.029,13.2990,4.60002,2470.474,2021-8-10T11:37:30Z
2021-08-10T09:39:15Z,42.805,6.029,13.2990,4.60001,2470.46,2021-8-10T11:40:33Z
2021-08-10T09:42:18Z,42.805,6.029,13.2987,4.59999,2470.483,2021-8-10T11:43:36Z
2021-08-10T09:45:21Z,42.805,6.029,13.2989,4.60001,2470.46,2021-8-10T11:46:39Z
2021-08-10T09:48:24Z,42.805,6.029,13.2992,4.60001,2470.483,2021-8-10T11:49:42Z
2021-08-10T09:51:27Z,42.805,6.029,13.2992,4.60000,2470.474,2021-8-10T11:52:45Z
2021-08-10T09:54:30Z,42.805,6.029,13.2990,4.60002,2470.46,2021-8-10T11:55:48Z
2021-08-10T09:57:33Z,42.805,6.029,13.2990,4.60002,2470.45,2021-8-10T11:58:52Z
2021-08-10T10:00:37Z,42.805,6.029,13.2986,4.59999,2470.46,2021-8-10T12:01:55Z
2021-08-10T10:03:40Z,42.805,6.029,13.2987,4.60001,2470.39,2021-8-10T12:04:58Z
2021-08-10T10:06:43Z,42.805,6.029,13.2986,4.60001,2470.45,2021-8-10T12:08:01Z
2021-08-10T10:09:46Z,42.805,6.029,13.2988,4.59999,2470.46,2021-8-10T12:11:04Z
2021-08-10T10:12:49Z,42.805,6.029,13.2989,4.60001,2470.46,2021-8-10T12:14:07Z
2021-08-10T10:15:52Z,42.805,6.029,13.2987,4.60003,2470.45,2021-8-10T12:17:10Z
2021-08-10T10:18:55Z,42.805,6.029,13.2993,4.59999,2470.437,2021-8-10T12:20:13Z
2021-08-10T10:21:58Z,42.805,6.029,13.2990,4.59999,2470.413,2021-8-10T12:23:17Z
2021-08-10T10:25:02Z,42.805,6.029,13.2986,4.60002,2470.437,2021-8-10T12:26:20Z
2021-08-10T10:28:05Z,42.805,6.029,13.2989,4.59999,2470.46,2021-8-10T12:29:23Z
2021-08-10T10:31:08Z,42.805,6.029,13.2989,4.60001,2470.427,2021-8-10T12:32:26Z
2021-08-10T10:34:11Z,42.805,6.029,13.2986,4.59999,2470.45,2021-8-10T12:35:29Z
2021-08-10T10:37:14Z,42.805,6.029,13.2987,4.59999,2470.427,2021-8-10T12:38:32Z
2021-08-10T10:40:17Z,42.805,6.029,13.2989,4.60001,2470.437,2021-8-10T12:41:35Z
2021-08-10T10:43:20Z,42.805,6.029,13.2990,4.60003,2470.427,2021-8-10T12:44:38Z
2021-08-10T10:46:24Z,42.805,6.029,13.2986,4.60001,2470.413,2021-8-10T12:47:42Z
2021-08-10T10:49:27Z,42.805,6.029,13.2988,4.60000,2470.474,2021-8-10T12:50:45Z
2021-08-10T10:52:30Z,42.805,6.029,13.2989,4.59999,2470.404,2021-8-10T12:53:48Z
2021-08-10T10:55:33Z,42.805,6.029,13.2986,4.60002,2470.413,2021-8-10T12:56:51Z
2021-08-10T10:58:36Z,42.805,6.029,13.2994,4.60002,2470.413,2021-8-10T12:59:54Z
2021-08-10T11:01:39Z,42.805,6.029,13.2988,4.59999,2470.39,2021-8-10T13:02:57Z
2021-08-10T11:04:42Z,42.805,6.029,13.2989,4.60002,2470.39,2021-8-10T13:06:00Z
2021-08-10T11:07:45Z,42.805,6.029,13.2987,4.59999,2470.39,2021-8-10T13:09:03Z
2021-08-10T11:10:49Z,42.805,6.029,13.2984,4.59999,2470.427,2021-8-10T13:12:07Z
2021-08-10T11:13:52Z,42.805,6.029,13.2988,4.59999,2470.413,2021-8-10T13:15:10Z
2021-08-10T11:16:55Z,42.805,6.029,13.2989,4.59999,2470.366,2021-8-10T13:18:13Z
2021-08-10T11:19:58Z,42.805,6.029,13.2990,4.59999,2470.413,2021-8-10T13:21:16Z
2021-08-10T11:23:01Z,42.805,6.029,13.2987,4.59999,2470.404,2021-8-10T13:24:19Z
2021-08-10T11:26:04Z,42.805,6.029,13.2987,4.60001,2470.413,2021-8-10T13:27:22Z
2021-08-10T11:29:07Z,42.805,6.029,13.2986,4.60001,2470.366,2021-8-10T13:30:25Z
2021-08-10T11:32:10Z,42.805,6.029,13.2990,4.60000,2470.413,2021-8-10T13:33:29Z
2021-08-10T11:35:14Z,42.805,6.029,13.2985,4.60001,2470.38,2021-8-10T13:36:32Z
2021-08-10T11:38:17Z,42.805,6.029,13.2991,4.59999,2470.404,2021-8-10T13:39:35Z
2021-08-10T11:41:20Z,42.805,6.029,13.2989,4.59999,2470.404,2021-8-10T13:42:38Z
2021-08-10T11:44:23Z,42.805,6.029,13.2987,4.59999,2470.357,2021-8-10T13:45:41Z
2021-08-10T11:47:26Z,42.805,6.029,13.2985,4.59999,2470.404,2021-8-10T13:48:44Z
2021-08-10T11:50:29Z,42.805,6.029,13.2990,4.59999,2470.39,2021-8-10T13:51:47Z
2021-08-10T11:53:32Z,42.805,6.029,13.2990,4.60002,2470.39,2021-8-10T13:54:50Z
2021-08-10T11:56:35Z,42.805,6.029,13.2991,4.59999,2470.366,2021-8-10T13:57:54Z
2021-08-10T11:59:39Z,42.805,6.029,13.2989,4.59998,2470.38,2021-8-10T14:00:57Z
2021-08-10T12:02:42Z,42.805,6.029,13.2988,4.59999,2470.343,2021-8-10T14:04:00Z
2021-08-10T12:05:45Z,42.805,6.029,13.2990,4.60000,2470.427,2021-8-10T14:07:03Z
2021-08-10T12:08:48Z,42.805,6.029,13.2991,4.59999,2470.39,2021-8-10T14:10:06Z
2021-08-10T12:11:51Z,42.805,6.029,13.2990,4.60006,2470.357,2021-8-10T14:13:09Z
2021-08-10T12:14:54Z,42.805,6.029,13.2988,4.59999,2470.33,2021-8-10T14:16:12Z
2021-08-10T12:17:57Z,42.805,6.029,13.2991,4.60001,2470.38,2021-8-10T14:19:15Z
2021-08-10T12:21:00Z,42.805,6.029,13.2991,4.60000,2470.38,2021-8-10T14:22:19Z
2021-08-10T12:24:04Z,42.805,6.029,13.2989,4.60002,2470.343,2021-8-10T14:25:22Z
2021-08-10T12:27:07Z,42.805,6.029,13.2991,4.60002,2470.366,2021-8-10T14:28:25Z
2021-08-10T12:30:10Z,42.805,6.029,13.2990,4.60000,2470.343,2021-8-10T14:31:28Z
2021-08-10T12:33:13Z,42.805,6.029,13.2985,4.60003,2470.343,2021-8-10T14:34:31Z
2021-08-10T12:36:16Z,42.805,6.029,13.2988,4.60000,2470.343,2021-8-10T14:37:34Z
2021-08-10T12:39:19Z,42.805,6.029,13.2990,4.60001,2470.343,2021-8-10T14:40:37Z
2021-08-10T12:42:22Z,42.805,6.029,13.2986,4.59999,2470.343,2021-8-10T14:43:40Z
2021-08-10T12:45:25Z,42.805,6.029,13.2986,4.59999,2470.343,2021-8-10T14:46:44Z
2021-08-10T12:48:29Z,42.805,6.029,13.2989,4.60002,2470.343,2021-8-10T14:49:47Z
2021-08-10T12:51:32Z,42.805,6.029,13.2986,4.60000,2470.343,2021-8-10T14:52:50Z
2021-08-10T12:54:35Z,42.805,6.029,13.2991,4.59999,2470.334,2021-8-10T14:55:53Z
2021-08-10T12:57:38Z,42.805,6.029,13.2990,4.60000,2470.343,2021-8-10T14:58:56Z
2021-08-10T13:00:41Z,42.805,6.029,13.2987,4.60002,2470.357,2021-8-10T15:01:59Z
2021-08-10T13:03:44Z,42.805,6.029,13.2988,4.59999,2470.32,2021-8-10T15:05:02Z
2021-08-10T13:06:47Z,42.805,6.029,13.2988,4.59999,2470.31,2021-8-10T15:08:05Z
2021-08-10T13:09:51Z,42.805,6.029,13.2990,4.60001,2470.357,2021-8-10T15:11:09Z
2021-08-10T13:12:54Z,42.805,6.029,13.2984,4.60001,2470.32,2021-8-10T15:14:12Z
2021-08-10T13:15:57Z,42.805,6.029,13.2993,4.60004,2470.32,2021-8-10T15:17:15Z
2021-08-10T13:19:00Z,42.805,6.029,13.2987,4.59999,2470.343,2021-8-10T15:20:18Z
2021-08-10T13:22:03Z,42.805,6.029,13.2987,4.60003,2470.32,2021-8-10T15:23:21Z
2021-08-10T13:25:06Z,42.805,6.029,13.2988,4.59999,2470.357,2021-8-10T15:26:24Z
2021-08-10T13:28:09Z,42.805,6.029,13.2986,4.60000,2470.32,2021-8-10T15:29:27Z
2021-08-10T13:31:12Z,42.805,6.029,13.2991,4.60000,2470.297,2021-8-10T15:32:30Z
2021-08-10T13:34:16Z,42.805,6.029,13.2988,4.60000,2470.297,2021-8-10T15:35:34Z
2021-08-10T13:37:19Z,42.805,6.029,13.2989,4.60001,2470.334,2021-8-10T15:38:37Z
2021-08-10T13:40:22Z,42.805,6.029,13.2987,4.59999,2470.32,2021-8-10T15:41:40Z
2021-08-10T13:43:25Z,42.805,6.029,13.2987,4.60002,2470.334,2021-8-10T15:44:43Z
2021-08-10T13:46:28Z,42.805,6.029,13.2986,4.60002,2470.32,2021-8-10T15:47:46Z
2021-08-10T13:49:31Z,42.805,6.029,13.2990,4.59999,2470.32,2021-8-10T15:50:49Z
2021-08-10T13:52:34Z,42.805,6.029,13.2987,4.60001,2470.334,2021-8-10T15:53:52Z
2021-08-10T13:55:37Z,42.805,6.029,13.2989,4.60000,2470.334,2021-8-10T15:56:56Z
2021-08-10T13:58:41Z,42.805,6.029,13.2990,4.59999,2470.334,2021-8-10T15:59:59Z
2021-08-10T14:01:44Z,42.805,6.029,13.2988,4.60001,2470.334,2021-8-10T16:03:02Z
2021-08-10T14:04:47Z,42.805,6.029,13.2986,4.60001,2470.297,2021-8-10T16:06:05Z
2021-08-10T14:07:50Z,42.805,6.029,13.2988,4.60001,2470.31,2021-8-10T16:09:08Z
2021-08-10T14:10:53Z,42.805,6.029,13.2986,4.59999,2470.334,2021-8-10T16:12:11Z
2021-08-10T14:13:56Z,42.805,6.029,13.2991,4.60002,2470.343,2021-8-10T16:15:14Z
2021-08-10T14:16:59Z,42.805,6.029,13.2990,4.60000,2470.334,2021-8-10T16:18:17Z
2021-08-10T14:20:02Z,42.805,6.029,13.2989,4.59999,2470.297,2021-8-10T16:21:20Z
2021-08-10T14:23:06Z,42.805,6.029,13.2988,4.60000,2470.31,2021-8-10T16:24:24Z
2021-08-10T14:26:09Z,42.805,6.029,13.2988,4.59999,2470.297,2021-8-10T16:27:27Z
2021-08-10T14:29:12Z,42.805,6.029,13.2989,4.60000,2470.32,2021-8-10T16:30:30Z
2021-08-10T14:32:15Z,42.805,6.029,13.2991,4.59998,2470.264,2021-8-10T16:33:33Z
2021-08-10T14:35:18Z,42.805,6.029,13.2987,4.59999,2470.297,2021-8-10T16:36:36Z
2021-08-10T14:38:21Z,42.805,6.029,13.2987,4.60000,2470.273,2021-8-10T16:39:39Z
2021-08-10T14:41:24Z,42.805,6.029,13.2990,4.59999,2470.334,2021-8-10T16:42:42Z
2021-08-10T14:44:27Z,42.805,6.029,13.2986,4.60000,2470.31,2021-8-10T16:45:46Z
2021-08-10T14:47:31Z,42.805,6.029,13.2989,4.60001,2470.297,2021-8-10T16:48:49Z
2021-08-10T14:50:34Z,42.805,6.029,13.2986,4.59999,2470.273,2021-8-10T16:51:52Z
2021-08-10T14:53:37Z,42.805,6.029,13.2983,4.59999,2470.297,2021-8-10T16:54:55Z
2021-08-10T14:56:40Z,42.805,6.029,13.2992,4.60003,2470.273,2021-8-10T16:57:58Z
2021-08-10T14:59:43Z,42.805,6.029,13.2991,4.59999,2470.297,2021-8-10T17:01:01Z
2021-08-10T15:02:46Z,42.805,6.029,13.2987,4.60001,2470.297,2021-8-10T17:04:04Z
2021-08-10T15:05:49Z,42.805,6.029,13.2991,4.59999,2470.31,2021-8-10T17:07:07Z
2021-08-10T15:08:52Z,42.805,6.029,13.2986,4.60000,2470.334,2021-8-10T17:10:11Z
2021-08-10T15:11:56Z,42.805,6.029,13.2990,4.60000,2470.273,2021-8-10T17:13:14Z
2021-08-10T15:14:59Z,42.805,6.029,13.2988,4.60001,2470.273,2021-8-10T17:16:17Z